Hovedside
METAR-TAF:

METAR-TAF

Lufthavner :

Røst, Norge

Røst lufthavn

breddegrad: 67-31N, lengdegrad: 012-06E, høyde over havet: 4 m

Gjeldene værobservasjon

Denne rapporten ble laget for 3 timer og 59 minutter siden, klokken 14:50 UTC
Vind 9 kt fra Sør
Temperatur 13°C
Luftfuktighet 82%
Trykk 1022 hPa
Sikt 10 km eller mer
ingen skyer under 1500 m og ingen bygeskyer

METAR: ENRS 221450Z 17009KT CAVOK 13/10 Q1022

Tid: 20:49 (18:49 UTC)


TAF: fraværende

Værobservasjoner og værvarsel for over 4000 flyplasser (METAR- og TAF-rapporter).

Tilgjengelige stasjoner er representert av de røde og gule prikkene på kartet.

Hold musepekeren over prikken for å se navnet på stasjonen.

Klikk så for å se værobservasjoner og -varsler.

For å forandre kartet kan du klikke på den grønne knappen med svart kryss for å zoome inn, på den grønne knappen med strek for å zoome ut, eller på de grønne pilene for å se tilstøtende kart.


METAR-TAF: